Regional Weather Roundup
Issued by NWS

Home | Current Version | Previous Version | Graphics & Text | Print | Product List | Glossary On
Versions: 1 2 3 4 5 6 7 8 9 10 11 12 13 14 15 16 17 18 19 20 21 22 23 24 25 26 27 28 29 30 31 32 33 34 35 36 37 38 39 40 41 42 43 44 45 46 47 48 49 50
338
ASUS43 KMKX 181420
RWRWI

WISCONSIN REGIONAL WEATHER ROUNDUP
NATIONAL WEATHER SERVICE MILWAUKEE/SULLIVAN WI
800 AM CST SUN FEB 18 2018

NOTE: "FAIR" INDICATES FEW OR NO CLOUDS BELOW 12,000 FEET WITH NO
SIGNIFICANT WEATHER AND/OR OBSTRUCTIONS TO VISIBILITY.

WIZ001-002-006>008-014>016-023>028-181500-
NORTHWEST WISCONSIN

CITY           SKY/WX    TMP DP  RH WIND       PRES   REMARKS
SUPERIOR ARPT  LGT SNOW  15   9  76 E3        30.01S
ASHLAND        CLOUDY    15   5  64 SE3       30.06R
HAYWARD        CLOUDY    16   5  62 VRB6      29.97F WCI   7
SIREN          FAIR      18   5  57 SE8       29.97S WCI   8
CUMBERLAND     CLOUDY    18   5  57 SE9       29.96F WCI   6
RICE LAKE      MOCLDY    18   7  63 SE12      30.00F WCI   5
CHETEK         CLOUDY    18   7  63 SE8       30.00F WCI   7
LADYSMITH      MOCLDY    16   8  72 SE7       30.03S WCI   6
EAU CLAIRE     MOCLDY    19   9  65 SE12      30.02F WCI   7
MENOMONIE      CLOUDY    20  11  68 E9        30.01R WCI   9
NEW RICHMOND   CLOUDY    20   7  57 SE10      29.97R WCI   9
OSCEOLA        CLOUDY    21   8  57 SE13      29.99R WCI   9
$$

WIZ003>005-009-010-017-018-181500-
NORTH CENTRAL WISCONSIN

CITY           SKY/WX    TMP DP  RH WIND       PRES   REMARKS
MANITOWISH WTR CLOUDY    11   5  76 SE6       30.02R WCI   2
ARBOR VITAE    CLOUDY    14   9  79 SE3       30.03R
WOODRUFF       CLOUDY    14   9  79 SE3       30.03R
RHINELANDER    CLOUDY    12   8  84 SE3       30.04F
EAGLE RIVER    CLOUDY    11   5  77 CALM      30.04S
LAND O LAKES   CLOUDY    10   5  81 CALM      30.05S
PHILLIPS       CLOUDY    13   7  74 SE3       30.02S
TOMAHAWK       CLOUDY    12   7  83 CALM      30.05S
MEDFORD        CLOUDY    13   7  76 SE6       30.04R WCI   4
MERRILL        CLOUDY    13   9  86 CALM      30.09R
$$

WIZ029-030-035-036-043>047-181500-
CENTRAL WISCONSIN

CITY           SKY/WX    TMP DP  RH WIND       PRES   REMARKS
WAUSAU         CLOUDY    12   9  87 SE3       30.09R
MOSINEE        MOCLDY    12  10  92 S6        30.11S WCI   3
MARSHFIELD     CLOUDY    16  12  84 SE6       30.07R WCI   7
STEVENS POINT  CLOUDY    14  14 100 CALM      30.13R
WAUPACA        CLOUDY    19  15  88 CALM      30.16R
WAUTOMA        CLOUDY    16  14  92 CALM      30.16R
WISC RAPIDS    CLOUDY    17  12  80 SE5       30.12S WCI  10
CAMP DOUGLAS   CLOUDY    19  18  93 CALM      30.11S
$$

WIZ011>013-019>022-031-037>040-048>050-181500-
NORTHEAST WISCONSIN

CITY           SKY/WX    TMP DP  RH WIND       PRES   REMARKS
ANTIGO         CLOUDY    13  10  87 SE6       30.07F WCI   4
SHAWANO        FAIR      18  15  89 CALM      30.15S
OCONTO         FAIR      15  13  92 CALM      30.18R
STURGEON BAY   FAIR      19  15  84 SW5       30.19R WCI  12
GREEN BAY      FAIR      16  13  88 S5        30.18R WCI   9
MANITOWOC      FAIR      23  21  92 S3        30.19S
APPLETON       PTSUNNY   18  16  93 CALM      30.15R
CLINTONVILLE   PTSUNNY   14  11  88 CALM      30.16R
OSHKOSH        CLOUDY    20  17  88 S6        30.16R WCI  12
$$

WIZ032>034-041-042-053>061-181500-
SOUTHWEST WISCONSIN

CITY           SKY/WX    TMP DP  RH WIND       PRES   REMARKS
LA CROSSE      FAIR      20  17  88 S7        30.09S WCI  11
SPARTA         FAIR      16  15  95 CALM      30.10S
VIROQUA        FAIR      22  22 100 SE9       30.07S WCI  11
BOSCOBEL       FAIR      16  13  88 CALM      30.15F
PRAIRIE DU CHI FAIR      19  17  92 E5        30.14S WCI  13
PLATTEVILLE    PTSUNNY   15  15  98 CALM      30.16R
$$

WIZ056-057-062-063-064-067-068-181500-
SOUTH CENTRAL WISCONSIN

CITY           SKY/WX    TMP DP  RH WIND       PRES   REMARKS
REEDSBURG      FAIR      20  20 100 E3        30.12F
BARABOO/DELLS  FAIR      23  21  93 S6        30.13S WCI  15
LONE ROCK      FAIR      19  18  95 E6        30.15S FOG     WCI  11
MINERAL POINT  FOG       21  21 100 SE5       30.12S VSB 3/4 WCI  15
MADISON        PTSUNNY   20  19  96 SE3       30.16R
MIDDLETON      FAIR      22  21  96 CALM      30.16S
WATERTOWN      FAIR      19  19 100 CALM      30.17S
MONROE         FOG       16  14  93 S8        30.16R VSB 1/4 WCI   5
JANESVILLE     CLOUDY    16  16 100 SE3       30.18R
$$

WIZ051-052-058>065-066-070>072-181500-
SOUTHEAST WISCONSIN

CITY           SKY/WX    TMP DP  RH WIND       PRES   REMARKS
MILWAUKEE      PTSUNNY   24  21  88 CALM      30.20F
WAUKESHA       SUNNY     19  18  93 SE3       30.18F
MILWAUKEE/TIMM SUNNY     19  18  93 CALM      30.21S
RACINE         FAIR      24  21  88 S5        30.23F WCI  18
BURLINGTON     FOG       19  17  91 CALM      30.20S VSB 3/4
KENOSHA        FAIR      23  20  88 S6        30.22S FOG     WCI  16
FOND DU LAC    PTSUNNY   20  16  84 S5        30.17S WCI  13
SHEBOYGAN      FAIR      20  19  96 CALM      30.18F
WEST BEND      FAIR      21  21 100 S3        30.19S
JUNEAU         CLOUDY    17  15  95 SE3       30.18F FOG
$$

LSZ147-162-181500-
LAKE SUPERIOR

STATION/POSITION TIME  TEMP    WIND        PRES    WAVE
                       AIR SEA DIR/SP/G            HT/PER
                 (UTC) (F)     (DEG/KT/KT) (MB)    (FT/S)
DEVILS ISLAND    1400   17     150/  6/  7 1019.2R
SAXON HARBOR     1340   17     190/  2/  5 1017.6S
$$

LMZ867-665-643>646-181500-
LAKE MICHIGAN

STATION/POSITION TIME  TEMP    WIND        PRES    WAVE
                       AIR SEA DIR/SP/G            HT/PER
                 (UTC) (F)     (DEG/KT/KT) (MB)    (FT/S)
NORTHPORT PIER   1340   20                 1021.3S
KEWAUNEE LAKESHO 1354   20     280/  3/  4 1021.4R
SHEBOYGAN LAKESH 1400   23     250/  2/  3 1023.4F
PORT WASHINGTON  1340   24     260/  5/  7 1024.0S
MILWAUKEE LAKESH 1400   25     210/  3/  3   N/A
KENOSHA   LAKESH 1400   24        CALM     1023.7
$$

TC  - TEMPERATURE IN CELSIUS
VSB - VISIBILITY IN STATUTE MILES
WCI - WIND CHILL INDEX
HX  - HEAT INDEX





USA.gov is the U.S. government's official web portal to all federal, state and local government web resources and services.